Station CHTM3 - 8447435 - Chatham, MA Image indicating link to RSS feed of recent meteorological observations for station CHTM3


Conditions at CHTM3 as of
(8:30 pm EDT on 06/20/2024)
0030 GMT on 06/21/2024:
     

Click on the graph icon in the table below to see a time series plot of the last five days of that observation.

5-day plot - Atmospheric Pressure Atmospheric Pressure (PRES):30.19 in
5-day plot - Air Temperature Air Temperature (ATMP): 85.8 °F
NOS Water Level Observation Network Water Level
Previous observations
TIME
(EDT)
5-day plot - Wind Direction
WDIR
 
5-day plot - Wind Speed
WSPD
kts
5-day plot - Wind Gust
GST
kts
5-day plot - Wave Height
WVHT
ft
5-day plot - Dominant Wave Period
DPD
sec
5-day plot - Average Wave Period
APD
sec
5-day plot - Mean Wave Direction
MWD
 
5-day plot - Atmospheric Pressure
PRES
in
5-day plot - Pressure Tendency
PTDY
in
5-day plot - Air Temperature
ATMP
°F
5-day plot - Water Temperature
WTMP
°F
5-day plot - Dew Point
DEWP
°F
5-day plot - Salinity
SAL
psu
5-day plot - Visibility
VIS
nmi
5-day plot - Tide (above MLLW)
TIDE
ft
2024-06-20 08:24 pm-------30.19- 86.0-----
2024-06-20 08:18 pm-------30.19- 86.2-----
2024-06-20 08:12 pm-------30.19- 86.2-----
2024-06-20 08:06 pm-------30.18- 87.3-----
2024-06-20 08:00 pm-------30.18-0.01 87.3-----
2024-06-20 07:54 pm-------30.18- 87.4-----
2024-06-20 07:48 pm-------30.18- 87.4-----
2024-06-20 07:42 pm-------30.18- 86.9-----
2024-06-20 07:36 pm-------30.18- 86.9-----
2024-06-20 07:30 pm-------30.18- 86.9-----
2024-06-20 07:24 pm-------30.18- 86.9-----
2024-06-20 07:00 pm-------30.18-0.02 86.9-----
2024-06-20 06:54 pm-------30.18- 87.3-----
2024-06-20 06:48 pm-------30.18- 88.2-----
2024-06-20 06:42 pm-------30.18- 88.2-----
2024-06-20 06:36 pm-------30.18- 87.6-----
2024-06-20 06:30 pm-------30.18-------
2024-06-20 06:24 pm-------30.18-------
2024-06-20 06:18 pm-------30.18-------
2024-06-20 06:12 pm-------30.18-------
2024-06-20 06:06 pm-------30.18-------
2024-06-20 06:00 pm-------30.18-0.04 88.7-----
2024-06-20 05:54 pm-------30.18- 88.5-----
2024-06-20 05:48 pm-------30.18- 88.3-----
2024-06-20 05:42 pm-------30.18- 88.2-----
2024-06-20 05:36 pm-------30.18- 88.3-----
2024-06-20 05:30 pm-------30.18- 88.5-----
2024-06-20 05:24 pm-------30.18- 88.2-----
2024-06-20 05:18 pm-------30.19- 88.2-----
2024-06-20 05:12 pm-------30.19- 88.5-----
2024-06-20 05:06 pm-------30.19- 88.7-----
2024-06-20 05:00 pm-------30.19-0.05 88.5-----
2024-06-20 04:54 pm-------30.19- 88.9-----
2024-06-20 04:48 pm-------30.19- 87.8-----
2024-06-20 04:42 pm-------30.20- 87.8-----
2024-06-20 04:36 pm-------30.20- 88.0-----
2024-06-20 04:30 pm-------30.20- 88.5-----
2024-06-20 04:24 pm-------30.20- 88.2-----
2024-06-20 04:18 pm-------30.20- 88.3-----
2024-06-20 04:12 pm-------30.20- 88.7-----
2024-06-20 04:06 pm-------30.20- 89.4-----
2024-06-20 04:00 pm-------30.20-0.06 89.1-----
2024-06-20 03:54 pm-------30.21- 89.1-----
2024-06-20 03:48 pm-------30.21- 88.9-----
2024-06-20 03:42 pm-------30.21- 88.9-----
2024-06-20 03:36 pm-------30.22- 88.5-----
2024-06-20 03:30 pm-------30.22-------
2024-06-20 03:24 pm-------30.22-------
2024-06-20 03:18 pm-------30.22- 88.5-----
2024-06-20 03:12 pm-------30.22- 88.9-----
2024-06-20 03:06 pm-------30.23- 88.0-----
2024-06-20 03:00 pm-------30.23-0.04 87.8-----
2024-06-20 02:54 pm-------30.23- 88.3-----
2024-06-20 02:48 pm-------30.23- 87.8-----
2024-06-20 02:42 pm-------30.23- 87.8-----
2024-06-20 02:36 pm-------30.23- 88.0-----
2024-06-20 02:30 pm-------30.23- 87.4-----
2024-06-20 02:24 pm-------30.23- 86.9-----
2024-06-20 02:18 pm-------30.24- 87.4-----
2024-06-20 02:12 pm-------30.24- 86.9-----
2024-06-20 02:06 pm-------30.24- 86.7-----
2024-06-20 02:00 pm-------30.24-0.02 86.5-----
2024-06-20 01:54 pm-------30.25- 87.3-----
2024-06-20 01:48 pm-------30.25- 87.3-----
2024-06-20 01:42 pm-------30.25- 87.8-----
2024-06-20 01:36 pm-------30.25- 86.9-----
2024-06-20 01:30 pm-------30.25- 87.1-----
2024-06-20 01:24 pm-------30.25- 87.1-----
2024-06-20 01:18 pm-------30.26- 87.8-----
2024-06-20 01:12 pm-------30.26- 87.4-----
2024-06-20 01:06 pm-------30.26- 86.7-----
2024-06-20 01:00 pm-------30.26+0.00 87.1-----
2024-06-20 12:54 pm-------30.26- 87.4-----
2024-06-20 12:48 pm-------30.26- 88.0-----
2024-06-20 12:42 pm-------30.26- 88.0-----
2024-06-20 12:36 pm-------30.26- 88.3-----
2024-06-20 12:30 pm-------30.26- 88.9-----
2024-06-20 12:24 pm-------30.26- 88.7-----
2024-06-20 12:18 pm-------30.27- 88.0-----
2024-06-20 12:12 pm-------30.27- 88.2-----
2024-06-20 12:06 pm-------30.27- 87.8-----
2024-06-20 12:00 pm-------30.27+0.01 88.3-----
2024-06-20 11:54 am-------30.27- 88.2-----
2024-06-20 11:48 am-------30.27- 88.7-----
2024-06-20 11:42 am-------30.27- 88.0-----
2024-06-20 11:36 am-------30.27- 88.0-----
2024-06-20 11:30 am-------30.27- 88.2-----
2024-06-20 11:24 am-------30.27- 88.2-----
2024-06-20 11:18 am-------30.27- 87.8-----
2024-06-20 11:12 am-------30.27- 88.2-----
2024-06-20 11:06 am-------30.27- 87.8-----
2024-06-20 11:00 am-------30.27+0.00 87.6-----
2024-06-20 10:54 am-------30.27- 87.6-----
2024-06-20 10:48 am-------30.27- 87.8-----
2024-06-20 10:42 am-------30.27- 88.0-----
2024-06-20 10:36 am-------30.26- 88.7-----
2024-06-20 10:30 am-------30.27- 88.0-----
2024-06-20 10:24 am-------30.27- 88.2-----
2024-06-20 10:18 am-------30.27- 88.3-----
2024-06-20 10:12 am-------30.27- 88.2-----
2024-06-20 10:06 am-------30.27- 88.5-----
2024-06-20 10:00 am-------30.27+0.00 88.5-----
2024-06-20 09:54 am-------30.26- 88.0-----
2024-06-20 09:48 am-------30.26- 88.2-----
2024-06-20 09:42 am-------30.27- 88.7-----
2024-06-20 09:36 am-------30.26- 89.1-----
2024-06-20 09:30 am-------30.26- 88.7-----
2024-06-20 09:24 am-------30.26- 88.9-----
2024-06-20 09:18 am-------30.26- 88.9-----
2024-06-20 09:12 am-------30.26- 88.9-----
2024-06-20 09:06 am-------30.26- 88.5-----
2024-06-20 09:00 am-------30.26+0.00 88.7-----
2024-06-20 08:54 am-------30.26- 88.2-----
2024-06-20 08:48 am-------30.27- 88.3-----
2024-06-20 08:42 am-------30.26- 88.2-----
2024-06-20 08:36 am-------30.27- 88.0-----
2024-06-20 08:30 am-------30.27- 88.0-----
2024-06-20 08:24 am-------30.27- 87.6-----
2024-06-20 08:18 am-------30.27- 87.3-----
2024-06-20 08:12 am-------30.27- 86.7-----
2024-06-20 08:06 am-------30.26- 86.5-----
2024-06-20 08:00 am-------30.26+0.00 86.5-----
2024-06-20 07:54 am-------30.26- 86.4-----
2024-06-20 07:48 am-------30.26- 86.7-----
2024-06-20 07:42 am-------30.26- 86.4-----
2024-06-20 07:36 am-------30.26- 86.2-----
2024-06-20 07:30 am-------30.26- 86.2-----
2024-06-20 07:24 am-------30.26- 86.2-----
2024-06-20 07:18 am-------30.26- 86.2-----
2024-06-20 07:12 am-------30.27- 86.2-----
2024-06-20 07:06 am-------30.27- 86.7-----
2024-06-20 07:00 am-------30.26+0.00 86.0-----
2024-06-20 06:54 am-------30.27- 86.2-----
2024-06-20 06:48 am-------30.26- 86.2-----
2024-06-20 06:42 am-------30.26- 86.0-----
2024-06-20 06:36 am-------30.26- 86.5-----
2024-06-20 06:30 am-------30.26- 86.2-----
2024-06-20 06:24 am-------30.26- 86.5-----
2024-06-20 06:18 am-------30.26- 86.4-----
2024-06-20 06:12 am-------30.26- 86.4-----
2024-06-20 06:06 am-------30.27- 85.8-----
2024-06-20 06:00 am-------30.26+0.00 85.3-----
2024-06-20 05:54 am-------30.26- 85.3-----
2024-06-20 05:48 am-------30.26- 85.6-----
2024-06-20 05:42 am-------30.26- 85.8-----
2024-06-20 05:36 am-------30.26- 85.6-----
2024-06-20 05:30 am-------30.26- 84.9-----
2024-06-20 05:24 am-------30.26- 84.4-----
2024-06-20 05:18 am-------30.26- 84.4-----
2024-06-20 05:12 am-------30.26- 84.6-----
2024-06-20 05:06 am-------30.26- 84.9-----
2024-06-20 05:00 am-------30.26+0.00 85.1-----
2024-06-20 04:54 am-------30.26- 84.9-----
2024-06-20 04:48 am-------30.26- 84.2-----
2024-06-20 04:42 am-------30.26- 84.0-----
2024-06-20 04:36 am-------30.27- 83.8-----
2024-06-20 04:30 am-------30.27- 83.7-----
2024-06-20 04:24 am-------30.27- 83.7-----
2024-06-20 04:18 am-------30.27- 84.2-----
2024-06-20 04:12 am-------30.27- 83.7-----
2024-06-20 04:06 am-------30.26- 83.7-----
2024-06-20 04:00 am-------30.26-0.03 83.7-----
2024-06-20 03:54 am-------30.27- 84.4-----
2024-06-20 03:48 am-------30.27- 84.7-----
2024-06-20 03:42 am-------30.27- 84.7-----
2024-06-20 03:36 am-------30.27- 84.6-----
2024-06-20 03:30 am-------30.27- 84.7-----
2024-06-20 03:24 am-------30.27- 84.6-----
2024-06-20 03:18 am-------30.27- 84.6-----
2024-06-20 03:12 am-------30.27- 84.6-----
2024-06-20 03:06 am-------30.27- 84.6-----
2024-06-20 03:00 am-------30.27-0.03 84.0-----
2024-06-20 02:54 am-------30.27- 83.7-----
2024-06-20 02:48 am-------30.27- 83.5-----
2024-06-20 02:42 am-------30.27- 83.3-----
2024-06-20 02:36 am-------30.27- 83.3-----
2024-06-20 02:30 am-------30.27- 83.1-----
2024-06-20 02:24 am-------30.26- 83.3-----
2024-06-20 02:18 am-------30.27- 83.7-----
2024-06-20 02:12 am-------30.27- 83.7-----
2024-06-20 02:06 am-------30.27- 82.6-----
2024-06-20 02:00 am-------30.27-0.04 82.2-----
2024-06-20 01:54 am-------30.27- 81.9-----
2024-06-20 01:48 am-------30.27- 82.2-----
2024-06-20 01:42 am-------30.27- 81.7-----
2024-06-20 01:36 am-------30.27- 82.4-----
2024-06-20 01:30 am-------30.28- 82.6-----
2024-06-20 01:24 am-------30.28- 82.6-----
2024-06-20 01:18 am-------30.28- 81.9-----
2024-06-20 01:12 am-------30.28- 82.2-----
2024-06-20 01:06 am-------30.29- 82.6-----
2024-06-20 01:00 am-------30.29-0.01 81.7-----
2024-06-20 12:54 am-------30.29- 82.4-----
2024-06-20 12:48 am-------30.29- 82.4-----
2024-06-20 12:42 am-------30.30- 81.7-----
2024-06-20 12:36 am-------30.30- 82.2-----
2024-06-20 12:30 am-------30.30- 82.4-----
2024-06-20 12:24 am-------30.30- 82.6-----
2024-06-20 12:18 am-------30.30- 82.0-----
2024-06-20 12:12 am-------30.30- 81.9-----
2024-06-20 12:06 am-------30.30- 82.0-----
2024-06-20 12:00 am-------30.30+0.00 81.9-----
2024-06-19 11:54 pm-------30.30- 81.9-----
2024-06-19 11:48 pm-------30.30- 81.9-----
2024-06-19 11:42 pm-------30.30- 82.8-----
2024-06-19 11:36 pm-------30.30- 82.9-----
2024-06-19 11:30 pm-------30.30- 83.1-----
2024-06-19 11:24 pm-------30.30- 83.1-----
2024-06-19 11:18 pm-------30.30- 82.9-----
2024-06-19 11:12 pm-------30.30- 83.3-----
2024-06-19 11:06 pm-------30.30- 83.7-----
2024-06-19 11:00 pm-------30.30+0.00 84.0-----
2024-06-19 10:54 pm-------30.30- 84.4-----
2024-06-19 10:48 pm-------30.30- 84.6-----
2024-06-19 10:42 pm-------30.30- 84.7-----
2024-06-19 10:36 pm-------30.30- 84.7-----
2024-06-19 10:30 pm-------30.30- 84.9-----
2024-06-19 10:24 pm-------30.30- 84.7-----
2024-06-19 10:18 pm-------30.30- 84.9-----
2024-06-19 10:12 pm-------30.30- 84.9-----
2024-06-19 10:06 pm-------30.30- 84.9-----
2024-06-19 10:00 pm-------30.30-0.01 85.1-----
2024-06-19 09:54 pm-------30.30- 84.9-----
2024-06-19 09:48 pm-------30.30- 85.1-----
2024-06-19 09:42 pm-------30.30- 85.3-----
2024-06-19 09:36 pm-------30.30- 85.6-----
2024-06-19 09:30 pm-------30.29- 85.6-----
2024-06-19 09:24 pm-------30.29- 85.8-----
2024-06-19 09:18 pm-------30.29- 85.8-----
2024-06-19 09:12 pm-------30.30- 85.8-----
2024-06-19 09:06 pm-------30.30- 86.0-----
2024-06-19 09:00 pm-------30.29+0.00 86.2-----
2024-06-19 08:54 pm-------30.30- 86.2-----